Location: McFarlands Corners
(41.4117°N, 81.3382°W)
Time: 16:26:19
(UTC+00:00)

SR - Pass Details

Date: 17 February 2026
Orbit: 572 x 849 km, 66.7° (Epoch: 12 March)

Event Time Altitude Azimuth Distance (km) Brightness Sun altitude
Rises 17:17:09 0° 342° (NNW) 3,050 ? 36.5°
Reaches altitude 10° 17:20:12 10° 3° (N) 2,188 ? 36.6°
Maximum altitude 17:23:30 17° 44° (NE) 1,798 ? 36.7°
Drops below altitude 10° 17:26:55 10° 85° (E) 2,302 ? 36.7°
Sets 17:30:14 0° 105° (ESE) 3,280 ? 36.7°
